Regional Weather Roundup
Issued by NWS

Home | Current Version | Previous Version | Text Only | Print | Product List | Glossary On
Versions: 1 2 3 4 5 6 7 8 9 10 11 12 13 14 15 16 17 18 19 20 21 22 23 24 25 26 27 28 29 30 31 32 33 34 35 36 37 38 39 40 41 42 43 44 45 46 47 48 49 50
000
ASUS43 KMPX 100101
RWRMN
WEATHER ROUNDUP FOR MINNESOTA
NATIONAL WEATHER SERVICE TWIN CITIES/CHANHASSEN MN
700 PM CST SAT DEC 09 2017


NOTE: "FAIR" INDICATES FEW OR NO CLOUDS BELOW 12,000 FEET WITH NO
SIGNIFICANT WEATHER AND/OR OBSTRUCTIONS TO VISIBILITY. N/A MEANS
CURRENT SKY AND/OR WEATHER CONDITIONS ARE NOT AVAILABLE.

MNZ060>063-068>070-100200-
   Twin Cities Metro

CITY           SKY/WX    TMP DP  RH WIND       PRES   REMARKS
TWIN CITIES    CLOUDY    22  15  75 SW8       30.02F WCI  12
ST PAUL        CLOUDY    22  14  71 SW7       30.03F WCI  13
CRYSTAL        CLOUDY    22  12  65 S8        29.97F WCI  12
BLAINE         CLOUDY    23  16  74 S12       29.97F WCI  12
LAKEVILLE      CLOUDY    19  16  86 CALM      30.02F
EDEN PRAIRIE   CLOUDY    22  14  71 SW9       30.00F WCI  12
SOUTH ST PAUL  MOCLDY    22  14  70 SW6       30.02F WCI  15
LAKE ELMO      MOCLDY    23  16  74 SW10      30.01F WCI  12
$$
MNZ001>005-007-008-013>017-022>024-027-028-100200-
   Northwest Minnesota

CITY           SKY/WX    TMP DP  RH WIND       PRES   REMARKS
BEMIDJI        CLOUDY    18  12  76 S6        29.79F WCI  10
HALLOCK        CLEAR     23  19  86 S6        29.74S WCI  16
ROSEAU         CLOUDY    21  16  79 S8        29.75F WCI  12
WARROAD        CLOUDY    19  16  86 CALM      29.77F
CROOKSTON      CLOUDY    25  21  86 SW12      29.78F WCI  14
FOSSTON        CLOUDY    19  16  86 S13       29.79F WCI   7
DETROIT LAKES  CLOUDY    23  19  86 S10       29.83F WCI  12
MOORHEAD       MOCLDY    27  21  80 S10       29.84F WCI  17
PARK RAPIDS    CLOUDY    20  13  74 S12       29.82F WCI   8
MAHNOMEN       FAIR      22  18  84 S16       29.81F WCI   8
$$
MNZ006-009>011-018-025>026-100200-
   North Central Minnesota

CITY           SKY/WX    TMP DP  RH WIND       PRES   REMARKS
BAUDETTE       CLOUDY    17  12  80 S7        29.77F WCI   8
FLAG ISLAND    CLOUDY    18  14  86 S8        29.78R WCI   7
INTL FALLS     MOCLDY    15   9  76 CALM      29.81F
WASKISH        PTCLDY    18  12  79 S3        29.79F
BIG FORK       CLOUDY    18  10  73 S6        29.81F WCI   9
GRAND RAPIDS   CLOUDY    18  10  71 S8        29.86F WCI   8
ORR            CLOUDY    14   9  79 SE6       29.78F WCI   5
COOK           CLOUDY    14  10  85 S5        29.82F WCI   6
WALKER         CLOUDY    18  11  73 SW12      29.81F WCI   6
$$
MNZ012-019>021-037-100200-
   Northeast Minnesota

CITY           SKY/WX    TMP DP  RH WIND       PRES   REMARKS
DULUTH         LGT SNOW  16  10  77 SW9       29.87F WCI   4
ELY            LGT SNOW  12   9  85 S3        29.83F
HIBBING        CLOUDY    15   8  73 S7        29.84F WCI   5
EVELETH        FLURRIES  15   9  76 S7        29.86F WCI   5
DULUTH HARBOR  CLOUDY    19  12  73 SW9       29.95F WCI   9
TWO HARBORS    LGT SNOW  19  12  73 SW5       29.88F WCI  13
G MARAIS ARPRT CLOUDY     5   0  78 CALM      29.80F
$$
MNZ029>031-032-039>041-046>048-054>057-064-100200-
   West Central Minnesota

CITY           SKY/WX    TMP DP  RH WIND       PRES   REMARKS
FERGUS FALLS   CLOUDY    21  18  86 S12       29.89F WCI   9
MORRIS         CLOUDY    25  19  80 S9        29.90F WCI  15
ALEXANDRIA     CLOUDY    22  15  75 S12       29.91F WCI  10
ELBOW LAKE     FAIR      22  16  78 S12       29.89F WCI  10
WADENA         CLOUDY    19  12  73 S10       29.85F WCI   8
GLENWOOD       CLOUDY    21  16  79 S10       29.92F WCI  10
BENSON         CLOUDY    23  18  80 SW9       29.94F WCI  13
ORTONVILLE     CLOUDY    27  21  80 SW7       29.91F WCI  19
MADISON        CLOUDY    28  23  80 SW9       29.94F WCI  20
WILLMAR        MOCLDY    23  16  74 S5        29.97F WCI  17
$$
MNZ033>034-036-042>043-049>051-058-059-100200-
   Central Minnesota

CITY           SKY/WX    TMP DP  RH WIND       PRES   REMARKS
ST CLOUD       MOCLDY    22  13  68 SW10      29.96F WCI  11
SAUK CENTRE    CLOUDY    21  15  76 S9        29.93F WCI  11
PAYNESVILLE    CLOUDY    22  17  78 SW8       29.95F WCI  13
AITKIN         CLOUDY    19  10  68 S9        29.87F WCI   9
PINE RIVER     CLOUDY    18  10  73 S8        29.89F WCI   7
BRAINERD       CLOUDY    22  12  65 SW12      29.90F WCI  10
STAPLES        CLOUDY    19  12  73 S9        29.87F WCI   9
LONG PRAIRIE   CLOUDY    21  14  73 S9        29.92F WCI  11
LITTLE FALLS   CLOUDY    23   9  54 SW8       29.94S WCI  14
LITCHFIELD     CLOUDY    23  18  80 SW5       29.97F WCI  17
BUFFALO        CLOUDY    22  14  71 S7        29.99F WCI  14
MAPLE LAKE     MOCLDY    23  16  75 SW7       29.98F WCI  15
HUTCHINSON     CLOUDY    22  17  79 S3        30.00F
$$
MNZ037-044-045-052-053-100200-
   East Central Minnesota

CITY           SKY/WX    TMP DP  RH WIND       PRES   REMARKS
PRINCETON      MOCLDY    23  16  74 S6        29.96F WCI  16
MORA           MOCLDY    21  14  73 SW7       29.96F WCI  13
CAMBRIDGE      MOCLDY    23  12  63 S6        29.97F WCI  16
RUSH CITY      CLOUDY    20  13  74 S6        29.96F WCI  12
MOOSE LAKE     CLOUDY    19  12  73 SW3       29.91F
HINCKLEY       CLOUDY    21  16  79 S7        29.94F WCI  13
CLOQUET        LGT SNOW  18  10  73 S7        29.89F WCI   8
MCGREGOR       CLOUDY    21  14  73 S7        29.89F WCI  13
$$
MNZ071>073-080-081-089-090-097-098-100200-
   Southwest Minnesota

CITY           SKY/WX    TMP DP  RH WIND       PRES   REMARKS
MONTEVIDEO     CLOUDY    25  18  74 SW8       29.95F WCI  16
GRANITE FALLS  CLOUDY    26  19  75 S9        29.99F WCI  16
CANBY          CLOUDY    28  23  81 SW10G20   29.95F WCI  19
MARSHALL       CLOUDY    26  20  77 SW12G20   29.98F WCI  16
REDWOOD FALLS  CLOUDY    22  14  71 S10       29.98F WCI  11
OLIVIA         CLOUDY    23  16  74 S8        29.97F WCI  14
PIPESTONE      CLOUDY    19  18  93 SW9       29.98F WCI   9
WINDOM           N/A     23  10  58 SW10      30.00F WCI  12
WORTHINGTON    CLOUDY    23  18  81 SW17      30.01F WCI   9
JACKSON        CLOUDY    21  18  86 MISG      30.01F
TRACY          CLOUDY    26  20  80 SW20      29.96F WCI  12
$$
MNZ065>067-074>077-082>085-091>093-100200-
   South Central Minnesota

CITY           SKY/WX    TMP DP  RH WIND       PRES   REMARKS
MANKATO        CLOUDY    21  15  78 SW7       30.03F WCI  12
NEW ULM        MOCLDY    21  14  73 SW7       30.01F WCI  13
ST JAMES       MOCLDY    19  16  86 S8        30.04F WCI   9
FAIRMONT       PTCLDY    20  15  81 SW7       30.04F WCI  11
GLENCOE        CLOUDY    23  17  78 S7        30.00F WCI  14
FARIBAULT      CLOUDY    19  14  79 S6        30.03F WCI  11
WASECA         MOCLDY    19  14  79 SW8       30.05F WCI   9
ALBERT LEA     CLOUDY    19  12  73 SW6       30.04F WCI  11
$$
MNZ078>079-086>088-094>096-100200-
   Southeast Minnesota

CITY           SKY/WX    TMP DP  RH WIND       PRES   REMARKS
ROCHESTER      PTCLDY    18  13  80 W10       30.03F WCI   6
RED WING       CLOUDY    19  10  68 W7        30.03F WCI  10
STANTON        PTCLDY    22  16  78 SW7       30.01F WCI  13
DODGE CENTER   PTCLDY    18  12  79 SW5       30.02F WCI  11
WINONA           N/A     21  12  68 CALM      30.08F
AUSTIN         PTCLDY    19  12  73 W5        30.04F WCI  13
PRESTON        CLOUDY    17  11  78 W3        30.04F
$$
ABBREVIATIONS USED IN REMARKS
   TC - TEMPERATURES IN CELSIUS
  WCI - WIND CHILL INDEX
   HX - HEAT INDEX
  VSB - VISIBILITY
$$




USA.gov is the U.S. government's official web portal to all federal, state and local government web resources and services.